CFG7RL EDDM-EDDF

Flight info

Callsign CFG7RL
Flight time 0h 35m
Altitude 24000
Route GIVMI1N GIVMI Y101 ERNAS T161 DEBHI DEBHI1B
Aircraft A320/M-SDE3FGHIRWY/LB1

Departure

Time 2026-05-05 23:05
Airport Munich Airport (EDDM)

Arrival

Time 2026-05-05 23:40
Airport Frankfurt Main Airport (EDDF)
Time Latitude Longitude Altitude Speed Heading
2026-05-05 22:51 48.35586 11.79275 1459 ft 0 kts 263°
2026-05-05 22:57 48.35586 11.79287 1467 ft 4 kts 263°
2026-05-05 22:57 48.35591 11.79327 1459 ft 4 kts 258°
2026-05-05 22:58 48.35597 11.79366 1462 ft 4 kts 250°
2026-05-05 22:58 48.35608 11.79402 1460 ft 4 kts 233°
2026-05-05 22:58 48.35626 11.79424 1459 ft 3 kts 178°
2026-05-05 22:58 48.35633 11.79423 1460 ft 0 kts 174°
2026-05-05 23:00 48.35599 11.79429 1461 ft 11 kts 174°
2026-05-05 23:01 48.35496 11.79446 1463 ft 17 kts 173°
2026-05-05 23:01 48.35372 11.79467 1460 ft 19 kts 173°
2026-05-05 23:01 48.35236 11.79489 1466 ft 20 kts 173°
2026-05-05 23:01 48.35092 11.79516 1467 ft 18 kts 174°
2026-05-05 23:02 48.34966 11.79538 1460 ft 18 kts 173°
2026-05-05 23:02 48.34847 11.79558 1459 ft 15 kts 173°
2026-05-05 23:02 48.34798 11.79675 1460 ft 15 kts 85°
2026-05-05 23:02 48.34808 11.79821 1467 ft 13 kts 84°
2026-05-05 23:03 48.34819 11.79952 1467 ft 12 kts 83°
2026-05-05 23:03 48.34828 11.80067 1462 ft 10 kts 85°
2026-05-05 23:03 48.34794 11.80183 1463 ft 17 kts 128°
2026-05-05 23:03 48.34678 11.80252 1461 ft 19 kts 174°
2026-05-05 23:04 48.34537 11.80275 1468 ft 20 kts 174°
2026-05-05 23:04 48.34456 11.80167 1469 ft 15 kts 259°
2026-05-05 23:04 48.34443 11.80003 1469 ft 22 kts 264°
2026-05-05 23:04 48.34401 11.79449 1465 ft 90 kts 263°
2026-05-05 23:05 48.34306 11.78218 1467 ft 144 kts 263°
2026-05-05 23:05 48.34186 11.76614 1918 ft 154 kts 262°
2026-05-05 23:05 48.34070 11.75005 2637 ft 156 kts 264°
2026-05-05 23:05 48.33961 11.73366 3234 ft 163 kts 264°
2026-05-05 23:06 48.33835 11.71560 3538 ft 184 kts 264°
2026-05-05 23:06 48.33687 11.69531 3904 ft 204 kts 264°
2026-05-05 23:06 48.33522 11.67345 4569 ft 214 kts 263°
2026-05-05 23:06 48.33351 11.65120 5434 ft 214 kts 264°
2026-05-05 23:07 48.33470 11.62880 6263 ft 220 kts 284°
2026-05-05 23:07 48.34220 11.60792 6882 ft 236 kts 303°
2026-05-05 23:07 48.35260 11.58733 7394 ft 257 kts 303°
2026-05-05 23:07 48.36545 11.56773 8170 ft 272 kts 320°
2026-05-05 23:08 48.38130 11.55160 9072 ft 278 kts 321°
2026-05-05 23:08 48.39754 11.53539 9941 ft 283 kts 321°
2026-05-05 23:08 48.41460 11.51842 10346 ft 306 kts 322°
2026-05-05 23:08 48.43299 11.50012 10708 ft 326 kts 322°
2026-05-05 23:09 48.45194 11.48132 11389 ft 334 kts 322°
2026-05-05 23:09 48.47152 11.46195 12181 ft 339 kts 323°
2026-05-05 23:09 48.49133 11.44231 12973 ft 343 kts 323°
2026-05-05 23:09 48.51140 11.42231 13749 ft 348 kts 323°
2026-05-05 23:10 48.53176 11.40193 14370 ft 355 kts 323°
2026-05-05 23:10 48.55249 11.38112 15025 ft 360 kts 323°
2026-05-05 23:10 48.57346 11.36004 15693 ft 365 kts 323°
2026-05-05 23:10 48.59470 11.33875 16351 ft 369 kts 323°
2026-05-05 23:11 48.61623 11.31719 17038 ft 373 kts 323°
2026-05-05 23:11 48.63799 11.29540 17700 ft 377 kts 323°
2026-05-05 23:11 48.65999 11.27331 18333 ft 382 kts 323°
2026-05-05 23:11 48.68224 11.25092 18903 ft 386 kts 323°
2026-05-05 23:12 48.70467 11.22827 19485 ft 389 kts 323°
2026-05-05 23:12 48.72728 11.20537 20078 ft 393 kts 322°
2026-05-05 23:12 48.75011 11.18222 20680 ft 397 kts 322°
2026-05-05 23:12 48.77312 11.15890 21255 ft 400 kts 322°
2026-05-05 23:13 48.79640 11.13530 21838 ft 404 kts 322°
2026-05-05 23:13 48.81989 11.11149 22409 ft 408 kts 322°
2026-05-05 23:13 48.84359 11.08748 22984 ft 412 kts 322°
2026-05-05 23:13 48.86715 11.06352 23507 ft 415 kts 322°
2026-05-05 23:14 48.89123 11.03899 23790 ft 417 kts 322°
2026-05-05 23:14 48.91530 11.01444 23877 ft 415 kts 323°
2026-05-05 23:14 48.93921 10.99008 23875 ft 413 kts 323°
2026-05-05 23:14 48.96306 10.96573 23877 ft 412 kts 323°
2026-05-05 23:15 48.98683 10.94137 23886 ft 412 kts 323°
2026-05-05 23:15 49.01058 10.91700 23886 ft 412 kts 323°
2026-05-05 23:15 49.03436 10.89261 23886 ft 412 kts 323°
2026-05-05 23:15 49.05813 10.86825 23885 ft 412 kts 323°
2026-05-05 23:16 49.08190 10.84385 23883 ft 412 kts 323°
2026-05-05 23:16 49.10564 10.81937 23892 ft 412 kts 323°
2026-05-05 23:16 49.12937 10.79486 23893 ft 412 kts 323°
2026-05-05 23:16 49.15310 10.77034 23890 ft 412 kts 323°
2026-05-05 23:17 49.17681 10.74583 23896 ft 412 kts 323°
2026-05-05 23:17 49.19959 10.71954 23895 ft 409 kts 315°
2026-05-05 23:17 49.21946 10.68927 23883 ft 408 kts 311°
2026-05-05 23:17 49.23813 10.65675 23871 ft 406 kts 306°
2026-05-05 23:18 49.25559 10.62278 23868 ft 406 kts 305°
2026-05-05 23:18 49.27277 10.58837 23861 ft 406 kts 304°
2026-05-05 23:18 49.28976 10.55379 23863 ft 407 kts 304°
2026-05-05 23:18 49.30672 10.51907 23861 ft 407 kts 304°
2026-05-05 23:19 49.32368 10.48442 23857 ft 407 kts 304°
2026-05-05 23:19 49.34073 10.44974 23857 ft 407 kts 304°
2026-05-05 23:19 49.35778 10.41518 23859 ft 407 kts 304°
2026-05-05 23:19 49.37489 10.38060 23856 ft 407 kts 305°
2026-05-05 23:20 49.39199 10.34601 23859 ft 407 kts 304°
2026-05-05 23:20 49.40912 10.31137 23856 ft 407 kts 304°
2026-05-05 23:20 49.42603 10.27714 23824 ft 396 kts 304°
2026-05-05 23:20 49.44264 10.24348 23183 ft 396 kts 304°
2026-05-05 23:21 49.45924 10.20971 22595 ft 395 kts 304°
2026-05-05 23:21 49.47578 10.17601 22051 ft 393 kts 304°
2026-05-05 23:21 49.49216 10.14253 21534 ft 390 kts 304°
2026-05-05 23:21 49.50842 10.10925 21007 ft 388 kts 304°
2026-05-05 23:22 49.52455 10.07622 20497 ft 385 kts 304°
2026-05-05 23:22 49.54055 10.04344 20047 ft 381 kts 304°
2026-05-05 23:22 49.55636 10.01105 19602 ft 377 kts 304°
2026-05-05 23:22 49.57184 9.97926 19169 ft 374 kts 304°
2026-05-05 23:23 49.58739 9.94727 18733 ft 371 kts 304°
2026-05-05 23:23 49.60282 9.91548 18314 ft 369 kts 304°
2026-05-05 23:23 49.61813 9.88398 17844 ft 366 kts 304°
2026-05-05 23:23 49.63334 9.85264 17366 ft 363 kts 304°
2026-05-05 23:24 49.64835 9.82160 16891 ft 360 kts 304°
2026-05-05 23:24 49.66321 9.79079 16418 ft 356 kts 303°
2026-05-05 23:24 49.67794 9.76024 15954 ft 354 kts 303°
2026-05-05 23:24 49.69257 9.72988 15494 ft 351 kts 303°
2026-05-05 23:25 49.70707 9.69978 15046 ft 348 kts 303°
2026-05-05 23:25 49.72149 9.66983 14604 ft 345 kts 303°
2026-05-05 23:25 49.73573 9.64016 14170 ft 342 kts 303°
2026-05-05 23:25 49.74988 9.61067 13740 ft 340 kts 303°
2026-05-05 23:26 49.76391 9.58145 13266 ft 337 kts 303°
2026-05-05 23:26 49.77786 9.55244 12791 ft 334 kts 303°
2026-05-05 23:26 49.79163 9.52372 12326 ft 331 kts 303°
2026-05-05 23:26 49.80527 9.49519 11875 ft 328 kts 303°
2026-05-05 23:27 49.81877 9.46692 11419 ft 325 kts 303°
2026-05-05 23:27 49.83217 9.43882 10966 ft 323 kts 303°
2026-05-05 23:27 49.84547 9.41089 10527 ft 321 kts 303°
2026-05-05 23:27 49.85865 9.38320 10086 ft 319 kts 303°
2026-05-05 23:28 49.87175 9.35564 9644 ft 316 kts 303°
2026-05-05 23:28 49.88473 9.32828 9166 ft 314 kts 303°
2026-05-05 23:28 49.89764 9.30114 8694 ft 312 kts 305°
2026-05-05 23:28 49.91317 9.27771 8229 ft 313 kts 318°
2026-05-05 23:29 49.93021 9.25684 7775 ft 311 kts 319°
2026-05-05 23:29 49.94724 9.23633 7316 ft 309 kts 319°
2026-05-05 23:29 49.96409 9.21608 6871 ft 303 kts 319°
2026-05-05 23:29 49.98034 9.19663 6430 ft 287 kts 319°
2026-05-05 23:30 49.99582 9.17818 5980 ft 273 kts 319°
2026-05-05 23:30 50.00569 9.16650 5677 ft 265 kts 319°
2026-05-05 23:30 50.02479 9.14407 5066 ft 250 kts 319°
2026-05-05 23:30 50.03827 9.12828 4618 ft 242 kts 319°
2026-05-05 23:31 50.05148 9.11291 4154 ft 233 kts 319°
2026-05-05 23:31 50.06406 9.09841 3974 ft 216 kts 319°
2026-05-05 23:31 50.07597 9.08434 3970 ft 214 kts 319°
2026-05-05 23:31 50.08768 9.07027 3971 ft 212 kts 319°
2026-05-05 23:32 50.09936 9.05620 3982 ft 213 kts 319°
2026-05-05 23:32 50.11106 9.04210 3976 ft 212 kts 319°
2026-05-05 23:32 50.12208 9.02707 3973 ft 210 kts 306°
2026-05-05 23:32 50.12933 9.00776 3974 ft 206 kts 287°
2026-05-05 23:33 50.13181 8.98614 3969 ft 198 kts 267°
2026-05-05 23:33 50.12962 8.96601 3967 ft 181 kts 249°
2026-05-05 23:33 50.12542 8.94820 3975 ft 172 kts 249°
2026-05-05 23:33 50.12136 8.93081 4004 ft 171 kts 249°
2026-05-05 23:34 50.11731 8.91349 3981 ft 170 kts 249°
2026-05-05 23:34 50.11330 8.89642 3971 ft 170 kts 249°
2026-05-05 23:34 50.10924 8.87914 3968 ft 170 kts 249°
2026-05-05 23:34 50.10518 8.86186 3946 ft 170 kts 249°
2026-05-05 23:35 50.10112 8.84458 3806 ft 170 kts 249°
2026-05-05 23:35 50.09707 8.82740 3599 ft 168 kts 249°
2026-05-05 23:35 50.09303 8.81023 3387 ft 169 kts 249°
2026-05-05 23:35 50.08908 8.79327 3158 ft 165 kts 250°
2026-05-05 23:36 50.08544 8.77647 2903 ft 162 kts 250°
2026-05-05 23:36 50.08161 8.76050 2587 ft 151 kts 246°
2026-05-05 23:36 50.07767 8.74569 2302 ft 141 kts 246°
2026-05-05 23:36 50.07675 8.74218 2279 ft 137 kts 246°
2026-05-05 23:37 50.07568 8.73800 2252 ft 135 kts 248°
2026-05-05 23:37 50.07265 8.72441 2225 ft 131 kts 250°
2026-05-05 23:37 50.06968 8.71106 2141 ft 130 kts 249°
2026-05-05 23:37 50.06663 8.69790 1968 ft 129 kts 247°
2026-05-05 23:38 50.06438 8.68937 1864 ft 128 kts 244°
2026-05-05 23:38 50.06109 8.67667 1724 ft 125 kts 248°
2026-05-05 23:38 50.05827 8.66418 1532 ft 120 kts 248°
2026-05-05 23:38 50.05537 8.65215 1370 ft 122 kts 246°
2026-05-05 23:39 50.05212 8.63932 1154 ft 129 kts 247°
2026-05-05 23:39 50.04917 8.62601 938 ft 131 kts 249°
2026-05-05 23:39 50.04613 8.61285 782 ft 126 kts 244°
2026-05-05 23:39 50.04310 8.59979 661 ft 129 kts 247°
2026-05-05 23:40 50.04007 8.58683 451 ft 127 kts 247°
2026-05-05 23:40 50.03717 8.57490 362 ft 103 kts 250°
2026-05-05 23:40 50.03531 8.56700 353 ft 53 kts 250°
2026-05-05 23:40 50.03440 8.56291 356 ft 37 kts 252°